Kingstree, SC

11:59 PM EST on December 09, 2019 (GMT -0500)
Williamsburg County

Weather History for KCKI - October, 2019

Change the Weather History Date:

Saturday, October 26, 2019

  Actual Average Record
Temperature  
Mean Temperature 68 °F -  
Max Temperature 78 °F 73 °F 87 °F (2014)
Min Temperature 59 °F 46 °F 33 °F (2013)
Cooling Degree Days 4    
Growing Degree Days 18 (Base 50)    
Moisture  
Dew Point 66 °F    
Average Humidity 90    
Maximum Humidity 100    
Minimum Humidity 69    
Precipitation  
Precipitation 0.00 in - - ()
Sea Level Pressure  
Sea Level Pressure 30.05 in    
Wind  
Wind Speed 4 mph ()    
Max Wind Speed 14 mph    
Max Gust Speed 24 mph    
Visibility 8.7 miles    
Events Rain    
Averages and records for this station are not official NWS values.
T = Trace of Precipitation, MM = Missing Value Source: Averaged Metar Reports

Daily Weather History Graph

Daily Weather History Graph

Search for Another Location

Airport or City:

Astronomy

Oct. 26, 2019 Rise Set
Actual Time 7:33 AM EDT 6:33 PM EDT
Civil Twilight 7:07 AM EDT 6:58 PM EDT
Nautical Twilight 6:38 AM EDT 7:27 PM EDT
Astronomical Twilight 6:09 AM EDT 7:56 PM EDT
Moon 5:36 AM EDT (10/26) 6:00 PM EDT (10/26)
Length of Visible Light 11h 51m
Length of Day
11h 00m
Waning Crescent, 3% of the Moon is Illuminated
Oct 26
Waning Crescent
Oct 27
New
Nov 4
First Quarter
Nov 12
Full
Nov 19
Last Quarter

Hourly Weather History & Observations

Time (EDT) Temp. Dew Point Humidity Pressure Visibility Wind Dir Wind Speed Gust Speed Precip Events Conditions
12:15 AM 64.4 °F 64.4 °F 100% 30.15 in 10.0 mi East 6.9 mph - N/A   Clear
12:35 AM 64.4 °F 62.6 °F 94% 30.15 in 10.0 mi East 4.6 mph - N/A   Clear
12:55 AM 64.4 °F 62.6 °F 94% 30.15 in 10.0 mi Calm Calm - N/A   Clear
1:15 AM 62.6 °F 62.6 °F 100% 30.15 in 10.0 mi Calm Calm - N/A   Clear
1:35 AM 62.6 °F 60.8 °F 94% 30.14 in 10.0 mi Calm Calm - N/A   Clear
1:55 AM 62.6 °F 60.8 °F 94% 30.14 in 10.0 mi Calm Calm - N/A   Clear
2:15 AM 60.8 °F 60.8 °F 100% 30.14 in 10.0 mi Calm Calm - N/A   Clear
2:35 AM 60.8 °F 60.8 °F 100% 30.13 in 10.0 mi Calm Calm - N/A   Clear
2:55 AM 60.8 °F 60.8 °F 100% 30.12 in 10.0 mi Calm Calm - N/A   Clear
3:15 AM 60.8 °F 60.8 °F 100% 30.11 in 10.0 mi Calm Calm - N/A   Clear
3:35 AM 60.8 °F 60.8 °F 100% 30.12 in 7.0 mi Calm Calm - N/A   Clear
3:55 AM 60.8 °F 60.8 °F 100% 30.11 in 10.0 mi Calm Calm - N/A   Clear
4:15 AM 60.8 °F 59.0 °F 94% 30.11 in 10.0 mi Calm Calm - N/A   Clear
4:35 AM 60.8 °F 59.0 °F 94% 30.10 in 7.0 mi Calm Calm - N/A   Clear
4:55 AM 60.8 °F 59.0 °F 94% 30.10 in 10.0 mi Calm Calm - N/A   Clear
5:15 AM 60.8 °F 59.0 °F 94% 30.10 in 10.0 mi Calm Calm - N/A   Clear
5:35 AM 60.8 °F 59.0 °F 94% 30.10 in 10.0 mi Calm Calm - N/A   Clear
5:55 AM 60.8 °F 59.0 °F 94% 30.10 in 7.0 mi Calm Calm - N/A   Clear
6:15 AM 60.8 °F 59.0 °F 94% 30.10 in 10.0 mi Calm Calm - N/A   Clear
6:35 AM 60.8 °F 59.0 °F 94% 30.10 in 7.0 mi Calm Calm - N/A   Clear
6:55 AM 60.8 °F 59.0 °F 94% 30.09 in 7.0 mi Calm Calm - N/A   Clear
7:15 AM 60.8 °F 59.0 °F 94% 30.10 in 10.0 mi Calm Calm - N/A   Clear
7:35 AM 59.0 °F 59.0 °F 100% 30.09 in 7.0 mi Calm Calm - N/A   Clear
7:55 AM 59.0 °F 59.0 °F 100% 30.10 in 7.0 mi Calm Calm - N/A   Clear
8:15 AM 60.8 °F 59.0 °F 94% 30.10 in 5.0 mi Calm Calm - N/A   Scattered Clouds
8:35 AM 62.6 °F 60.8 °F 94% 30.10 in 7.0 mi Calm Calm - N/A   Mostly Cloudy
8:55 AM 62.6 °F 62.6 °F 100% 30.11 in 7.0 mi Calm Calm - N/A   Overcast
9:15 AM 64.4 °F 62.6 °F 94% 30.11 in 10.0 mi Calm Calm - N/A   Overcast
9:35 AM 68.0 °F 66.2 °F 94% 30.11 in 10.0 mi ENE 3.5 mph - N/A   Mostly Cloudy
9:55 AM 69.8 °F 68.0 °F 94% 30.11 in 10.0 mi ENE 3.5 mph - N/A   Mostly Cloudy
10:35 AM 73.4 °F 68.0 °F 83% 30.10 in 10.0 mi ENE 8.1 mph - N/A   Mostly Cloudy
10:55 AM 73.4 °F 68.0 °F 83% 30.10 in 7.0 mi East 6.9 mph - N/A   Mostly Cloudy
11:15 AM 77.0 °F 68.0 °F 74% 30.10 in 7.0 mi ENE 9.2 mph 16.1 mph N/A   Mostly Cloudy
11:55 AM 77.0 °F 68.0 °F 74% 30.09 in 7.0 mi East 11.5 mph 19.6 mph N/A   Overcast
12:15 PM 78.8 °F 68.0 °F 69% 30.08 in 7.0 mi ENE 13.8 mph 18.4 mph N/A   Overcast
12:35 PM 78.8 °F 68.0 °F 69% 30.07 in 5.0 mi East 11.5 mph 19.6 mph N/A   Haze
12:55 PM 78.8 °F 68.0 °F 69% 30.06 in 7.0 mi East 9.2 mph 16.1 mph N/A   Overcast
1:15 PM 78.8 °F 68.0 °F 69% 30.05 in 7.0 mi East 12.7 mph 18.4 mph N/A   Overcast
1:35 PM 77.0 °F 69.8 °F 78% 30.05 in 10.0 mi East 9.2 mph - N/A   Overcast
1:55 PM 77.0 °F 69.8 °F 78% 30.04 in 7.0 mi East 9.2 mph 16.1 mph N/A   Overcast
2:15 PM 77.0 °F 71.6 °F 83% 30.03 in 10.0 mi East 9.2 mph - N/A Rain Light Rain
2:35 PM 78.8 °F 69.8 °F 74% 30.02 in 7.0 mi ESE 12.7 mph - N/A   Overcast
2:55 PM 77.0 °F 73.4 °F 89% 30.01 in 7.0 mi East 10.4 mph 19.6 mph N/A Rain Rain
3:15 PM 78.8 °F 71.6 °F 78% 30.01 in 7.0 mi East 10.4 mph - N/A   Mostly Cloudy
3:35 PM 78.8 °F 71.6 °F 78% 30.01 in 7.0 mi East 9.2 mph - N/A   Mostly Cloudy
4:15 PM 78.8 °F 71.6 °F 78% 29.98 in 7.0 mi East 12.7 mph 16.1 mph N/A   Mostly Cloudy
4:35 PM 77.0 °F 69.8 °F 78% 29.98 in 7.0 mi East 11.5 mph 17.3 mph N/A   Mostly Cloudy
4:55 PM 78.8 °F 69.8 °F 74% 29.98 in 7.0 mi East 13.8 mph 18.4 mph N/A   Mostly Cloudy
5:15 PM 77.0 °F 69.8 °F 78% 29.99 in 7.0 mi East 11.5 mph 17.3 mph N/A   Overcast
5:35 PM 77.0 °F 69.8 °F 78% 29.98 in 10.0 mi East 11.5 mph 24.2 mph N/A   Overcast
5:55 PM 75.2 °F 71.6 °F 89% 29.99 in 10.0 mi East 9.2 mph - N/A   Mostly Cloudy
6:15 PM 73.4 °F 71.6 °F 94% 29.99 in 10.0 mi East 10.4 mph - N/A   Mostly Cloudy
6:35 PM 73.4 °F 71.6 °F 94% 29.99 in 10.0 mi East 9.2 mph - N/A   Scattered Clouds
6:55 PM 73.4 °F 71.6 °F 94% 29.99 in 10.0 mi East 10.4 mph 17.3 mph N/A   Scattered Clouds
7:15 PM 71.6 °F 71.6 °F 100% 29.99 in 10.0 mi East 6.9 mph - N/A   Mostly Cloudy
7:35 PM 71.6 °F 69.8 °F 94% 29.98 in 10.0 mi East 8.1 mph - N/A   Scattered Clouds
7:55 PM 71.6 °F 69.8 °F 94% 29.98 in 10.0 mi East 4.6 mph - N/A   Scattered Clouds
8:15 PM 71.6 °F 69.8 °F 94% 29.98 in 10.0 mi East 8.1 mph - N/A   Mostly Cloudy
8:35 PM 71.6 °F 69.8 °F 94% 29.98 in 10.0 mi East 5.8 mph - N/A   Mostly Cloudy
8:55 PM 71.6 °F 69.8 °F 94% 29.98 in 10.0 mi East 9.2 mph - N/A   Mostly Cloudy
9:15 PM 71.6 °F 69.8 °F 94% 29.98 in 10.0 mi East 6.9 mph - N/A   Overcast
9:35 PM 71.6 °F 69.8 °F 94% 29.98 in 10.0 mi East 8.1 mph - N/A Rain Light Rain
9:55 PM 71.6 °F 69.8 °F 94% 29.98 in 10.0 mi East 6.9 mph - N/A   Overcast
10:15 PM 71.6 °F 69.8 °F 94% 29.98 in 10.0 mi ESE 5.8 mph - N/A   Overcast
10:35 PM 71.6 °F 69.8 °F 94% 29.97 in 7.0 mi East 8.1 mph - N/A Rain Light Rain
10:55 PM 71.6 °F 69.8 °F 94% 29.97 in 10.0 mi East 4.6 mph - N/A   Overcast
11:15 PM 71.6 °F 69.8 °F 94% 29.96 in 10.0 mi East 3.5 mph - N/A   Overcast
11:35 PM 71.6 °F 69.8 °F 94% 29.96 in 7.0 mi Calm Calm - N/A   Overcast
11:55 PM 71.6 °F 69.8 °F 94% 29.96 in 10.0 mi East 4.6 mph - N/A   Overcast